Regional Weather Roundup
Issued by NWS

Home | Current Version | Previous Version | Text Only | Print | Product List | Glossary On
Versions: 1 2 3 4 5 6 7 8 9 10 11 12 13 14 15 16 17 18 19 20 21 22 23 24 25 26 27 28 29 30 31 32 33 34 35 36 37 38 39 40 41 42 43 44 45 46 47 48 49 50
000
ASUS43 KMKX 161959
RWRWI

WISCONSIN REGIONAL WEATHER ROUNDUP
NATIONAL WEATHER SERVICE MILWAUKEE/SULLIVAN WI
200 PM CST TUE JAN 16 2018

NOTE: "FAIR" INDICATES FEW OR NO CLOUDS BELOW 12,000 FEET WITH NO
SIGNIFICANT WEATHER AND/OR OBSTRUCTIONS TO VISIBILITY.

WIZ001-002-006>008-014>016-023>028-162100-
NORTHWEST WISCONSIN

CITY           SKY/WX    TMP DP  RH WIND       PRES   REMARKS
SUPERIOR ARPT  FAIR      11   1  62 W7        30.58F WCI   0
ASHLAND        FAIR      15   7  70 W9        30.53F WCI   3
HAYWARD        FAIR      15   6  67 VRB3      30.51F
SIREN          FAIR       9   0  66 SW6       30.59S WCI  -1
CUMBERLAND     FAIR      10   3  72 W7        30.54F WCI   0
RICE LAKE      FAIR      11   5  76 CALM      30.57S
CHETEK         FAIR      13   6  72 W7        30.56S WCI   3
LADYSMITH      FAIR      19  10  65 W7        30.52S WCI  10
EAU CLAIRE     NOT AVBL
MENOMONIE      FAIR      12   5  72 W9        30.59S WCI   0
NEW RICHMOND   FAIR       8  -1  66 W7        30.61S WCI  -4
OSCEOLA        FAIR       8  -1  64 W7        30.65S WCI  -3
$$

WIZ003>005-009-010-017-018-162100-
NORTH CENTRAL WISCONSIN

CITY           SKY/WX    TMP DP  RH WIND       PRES   REMARKS
MANITOWISH WTR FLURRIES  17  11  76 NW5       30.43S WCI  10
ARBOR VITAE    CLOUDY    19  12  73 N8        30.42F WCI   9
WOODRUFF       CLOUDY    19  12  73 N8        30.42F WCI   9
RHINELANDER    CLOUDY    19   7  59 N7        30.42F WCI  10
EAGLE RIVER    FLURRIES  17   9  71 NW6       30.41S WCI   9
LAND O LAKES   LGT SNOW  18  13  79 NW3       30.42F
PHILLIPS       PTSUNNY   21  10  63 W7        30.45S WCI  12
TOMAHAWK       PTSUNNY   19   8  62 N7        30.45F WCI  10
MEDFORD        FAIR      19  10  66 N6        30.45F WCI  11
MERRILL        PTSUNNY   20   8  61 N8        30.46S WCI  10
$$

WIZ029-030-035-036-043>047-162100-
CENTRAL WISCONSIN

CITY           SKY/WX    TMP DP  RH WIND       PRES   REMARKS
WAUSAU         CLOUDY    22  10  60 NW8       30.43F WCI  12
MOSINEE        PTSUNNY   21  10  63 N9        30.46F WCI  11
MARSHFIELD     FAIR      17  10  74 W8        30.46F WCI   7
STEVENS POINT  FAIR      19   8  62 N8        30.47S WCI   9
WAUPACA        PTSUNNY   25  12  58 NW6       30.47F WCI  18
WAUTOMA        FAIR      26  13  57 NW9       30.48F WCI  17
WISC RAPIDS    FAIR      22   9  57 N9        30.49S WCI  12
CAMP DOUGLAS   MOSUNNY   19  10  68 W13       30.50F WCI   7
$$

WIZ011>013-019>022-031-037>040-048>050-162100-
NORTHEAST WISCONSIN

CITY           SKY/WX    TMP DP  RH WIND       PRES   REMARKS
ANTIGO         CLOUDY    19   9  66 N9        30.42F WCI   8
SHAWANO        FLURRIES  24  15  68 NW7       30.46S WCI  16
OCONTO         FAIR      20  11  68 NW3       30.47S
STURGEON BAY   FAIR      20   9  62 N7        30.46S WCI  11
GREEN BAY      FAIR      22  11  62 NW7       30.46F WCI  13
MANITOWOC      FAIR      21  10  62 N12       30.47S WCI   9
APPLETON       PTSUNNY   21  10  63 NW8       30.45S WCI  12
CLINTONVILLE   FLURRIES  23  14  68 N3        30.46F
OSHKOSH        FAIR      21  12  68 NW8       30.47S WCI  11
$$

WIZ032>034-041-042-053>061-162100-
SOUTHWEST WISCONSIN

CITY           SKY/WX    TMP DP  RH WIND       PRES   REMARKS
LA CROSSE      FAIR      15   6  67 NW10      30.58F WCI   2
SPARTA         FAIR      17  10  71 SW3       30.55F
VIROQUA        FAIR      13   9  83 NW7       30.51F WCI   3
BOSCOBEL       FAIR      18   9  68 W8        30.57S WCI   8
PRAIRIE DU CHI FAIR      15   6  67 W8        30.59S WCI   4
PLATTEVILLE    FAIR      19  12  76 W8        30.52S WCI   8
$$

WIZ056-057-062-063-064-067-068-162100-
SOUTH CENTRAL WISCONSIN

CITY           SKY/WX    TMP DP  RH WIND       PRES   REMARKS
REEDSBURG      FAIR      20  11  68 N8        30.50S WCI  10
BARABOO/DELLS  FAIR      22  11  64 NW6       30.48F WCI  14
LONE ROCK      NOT AVBL
MINERAL POINT  FAIR      21  14  73 W12       30.49F WCI   9
MADISON        FAIR      20  12  71 NW10      30.49S WCI   9
MIDDLETON      FAIR      23  14  68 NW9       30.49S WCI  13
WATERTOWN      FAIR      19  11  69 N10       30.47S WCI   8
MONROE         FAIR      21  10  63 NW10G16   30.47S WCI  10
JANESVILLE     SUNNY     21  10  63 NW10G16   30.47S WCI  10
$$

WIZ051-052-058>065-066-070>072-162100-
SOUTHEAST WISCONSIN

CITY           SKY/WX    TMP DP  RH WIND       PRES   REMARKS
MILWAUKEE      FAIR      25  10  53 N15       30.44S WCI  13
WAUKESHA       MOSUNNY   21   9  58 NW12      30.45S WCI   9
MILWAUKEE/TIMM MOSUNNY   23   7  50 N14       30.45S WCI  11
RACINE         CLOUDY    23  10  57 N13       30.45S WCI  11
BURLINGTON     FAIR      23   9  55 N10G20    30.44S WCI  12
KENOSHA        FAIR      24   9  52 NW12      30.43S WCI  13
FOND DU LAC    FAIR      20   9  62 NW9       30.47S WCI   9
SHEBOYGAN      FAIR      21  10  62 N13       30.45R WCI   9
WEST BEND      FAIR      21  10  63 N10       30.43F WCI  10
JUNEAU         FAIR      18  10  72 NW6       30.47F WCI  10
$$

LSZ147-162-162100-
LAKE SUPERIOR

STATION/POSITION TIME  TEMP    WIND        PRES    WAVE
                       AIR SEA DIR/SP/G            HT/PER
                 (UTC) (F)     (DEG/KT/KT) (MB)    (FT/S)
DEVILS ISLAND    1900   12     230/ 20/ 24 1035.6F
SAXON HARBOR     1940   18     210/  3/  8 1033.2F
$$

LMZ867-665-643>646-162100-
LAKE MICHIGAN

STATION/POSITION TIME  TEMP    WIND        PRES    WAVE
                       AIR SEA DIR/SP/G            HT/PER
                 (UTC) (F)     (DEG/KT/KT) (MB)    (FT/S)
NORTHPORT PIER   1940   18     310/ 13/ 23 1031.2S
KEWAUNEE LAKESHO 1930   20     340/  6/ 10 1030.6S
SHEBOYGAN LAKESH 1900   21     340/ 17/ 20 1032.1S
PORT WASHINGTON  1940   23     340/  8/ 12 1031.8F
MILWAUKEE LAKESH 1930   23     340/ 15/ 18   N/A
KENOSHA   LAKESH 1900   22     340/ 14/ 17 1030.5
$$

TC  - TEMPERATURE IN CELSIUS
VSB - VISIBILITY IN STATUTE MILES
WCI - WIND CHILL INDEX
HX  - HEAT INDEX




USA.gov is the U.S. government's official web portal to all federal, state and local government web resources and services.